This is the latest recevied weather packets stored in our database for station/object SP3SWJ-13. If no packets are shown the sender has not sent any weather packets the latest 10 day(s).
| Time | Temp. | Humidity | Pressure | Rain* | Wind** | Luminosity | Snow |
|---|---|---|---|---|---|---|---|
| 1777727226 | 26.11° C | 26% | 1011.8 hPa | - | - | 573 W/m² | - |
| 1777726925 | 25.56° C | 28% | 1011.9 hPa | - | - | 581 W/m² | - |
| 1777726624 | 26.11° C | 27% | 1011.9 hPa | - | - | 593 W/m² | - |
| 1777726323 | 25.56° C | 27% | 1012 hPa | - | - | 602 W/m² | - |
| 1777726022 | 25.56° C | 28% | 1012.1 hPa | - | - | 604 W/m² | - |
| 1777725721 | 25° C | 29% | 1012.2 hPa | - | - | 613 W/m² | - |
| 1777725420 | 25.56° C | 28% | 1012.2 hPa | - | - | 620 W/m² | - |
| 1777725119 | 25° C | 28% | 1012.3 hPa | - | - | 626 W/m² | - |
| 1777724818 | 25° C | 29% | 1012.4 hPa | - | - | 632 W/m² | - |
| 1777724517 | 25° C | 28% | 1012.3 hPa | - | - | 641 W/m² | - |
| 1777724216 | 25.56° C | 28% | 1012.4 hPa | - | - | 649 W/m² | - |
| 1777723915 | 24.44° C | 28% | 1012.5 hPa | - | - | 653 W/m² | - |
| 1777723615 | 23.89° C | 30% | 1012.5 hPa | - | - | 659 W/m² | - |
| 1777723314 | 25° C | 30% | 1012.6 hPa | - | - | 672 W/m² | - |
| 1777723012 | 25° C | 28% | 1012.6 hPa | - | - | 682 W/m² | - |
| 1777722712 | 25° C | 28% | 1012.8 hPa | - | - | 688 W/m² | - |
| 1777722411 | 24.44° C | 29% | 1012.8 hPa | - | - | 693 W/m² | - |
| 1777722110 | 23.89° C | 30% | 1012.8 hPa | - | - | 696 W/m² | - |
| 1777721809 | 25° C | 30% | 1013 hPa | - | - | 702 W/m² | - |
| 1777721508 | 23.89° C | 29% | 1013.1 hPa | - | - | 706 W/m² | - |
| 1777721208 | 23.33° C | 31% | 1013.1 hPa | - | - | 711 W/m² | - |
| 1777720907 | 23.89° C | 29% | 1013.1 hPa | - | - | 716 W/m² | - |
| 1777720606 | 23.33° C | 32% | 1013.2 hPa | - | - | 719 W/m² | - |
| 1777720305 | 24.44° C | 30% | 1013.1 hPa | - | - | 722 W/m² | - |
| 1777720004 | 23.89° C | 31% | 1013.2 hPa | - | - | 718 W/m² | - |
* Rain since midnight (hover to see other rain measurements)
** Current wind speed in m/s (hover to see current wind gust speed)